Location: Aubrey
(33.1990°N, 85.1361°W)
Time: 21:45:51
(UTC+00:00)

Envisat - Pass Details

Date: 25 September 2021
Orbit: 764 x 766 km, 98.2° (Epoch: 15 October)

Event Time Altitude Azimuth Distance (km) Brightness Sun altitude
Rises 10:40:32 0° 13° (NNE) 3,233 6.5 -11.3°
Reaches altitude 10° 10:42:51 10° 15° (NNE) 2,304 5.8 -10.9°
Maximum altitude 10:47:56 79° 102° (ESE) 782 3.2 -9.8°
Drops below altitude 10° 10:52:59 10° 189° (S) 2,290 5.3 -8.8°
Sets 10:55:17 0° 191° (S) 3,212 6.1 -8.3°
